W6DSP Weather Reports


Display with metric or nautical units.
time (UTC)temp
F
wind
direction
speed
MPH
gust
MPH
rain 1hr
in
rain 24hr
in
rain mn
in
humidity
%
barometer
mb
20260506204814 58 355 1.0 9.0 0.00 0.15 0.01 50 1014.1
20260506203635 58 5 1.0 9.0 0.00 0.15 0.01 50 1014.2
20260506202410 57 302 3.0 11.0 0.00 0.15 0.01 45 1014.0
20260506201144 57 309 3.0 11.0 0.00 0.15 0.01 47 1014.2
20260506195922 58 5 1.0 8.0 0.00 0.15 0.01 48 1014.3
20260506194753 58 43 1.0 8.0 0.00 0.15 0.01 45 1014.5
20260506193623 56 317 1.0 4.0 0.00 0.15 0.01 43 1014.6
20260506192346 57 37 1.0 8.0 0.00 0.17 0.01 46 1014.6
20260506191110 56 290 1.0 8.0 0.00 0.17 0.01 47 1014.7
20260506185859 56 339 0.0 3.0 0.00 0.17 0.01 54 1014.6
20260506184659 56 260 1.0 6.0 0.00 0.17 0.01 52 1014.6
20260506183513 55 348 1.0 7.0 0.00 0.17 0.01 48 1014.6
20260506182240 55 12 0.0 8.0 0.00 0.17 0.01 47 1014.5
20260506181104 55 13 1.0 8.0 0.00 0.18 0.01 46 1014.6
20260506175835 55 347 1.0 4.0 0.00 0.19 0.01 54 1014.7
20260506174602 55 355 1.0 7.0 0.00 0.20 0.01 51 1014.6
20260506173354 56 308 1.0 7.0 0.00 0.22 0.01 48 1014.5
20260506172201 57 0 1.0 7.0 0.00 0.23 0.01 43 1014.3
20260506170958 55 332 1.0 12.0 0.00 0.23 0.01 44 1014.3
20260506165730 56 49 4.0 12.0 0.00 0.24 0.01 45 1014.3
20260506164514 56 47 3.0 11.0 0.00 0.24 0.01 44 1014.3
20260506163322 55 19 1.0 4.0 0.00 0.24 0.01 46 1014.4
20260506162102 55 328 1.0 9.0 0.00 0.24 0.01 47 1014.4
20260506160926 54 34 1.0 7.0 0.00 0.24 0.01 44 1014.6
20260506155737 55 333 3.0 9.0 0.00 0.24 0.01 45 1014.5
20260506154550 55 0 3.0 12.0 0.00 0.24 0.01 50 1014.7
20260506153417 55 342 4.0 12.0 0.00 0.24 0.01 45 1014.6
20260506152240 55 44 3.0 9.0 0.00 0.24 0.01 48 1014.6
20260506151018 54 318 3.0 9.0 0.00 0.24 0.01 45 1014.6
20260506145803 55 348 3.0 8.0 0.00 0.24 0.01 53 1014.5
20260506144547 54 33 3.0 11.0 0.00 0.24 0.01 51 1014.3
20260506143402 53 38 3.0 11.0 0.00 0.24 0.01 50 1014.3
20260506142203 52 17 3.0 9.0 0.00 0.24 0.01 57 1014.2
20260506141018 52 319 4.0 9.0 0.00 0.24 0.01 51 1014.0
20260506135844 52 55 3.0 7.0 0.00 0.24 0.01 58 1013.8
20260506134649 51 57 4.0 12.0 0.00 0.24 0.01 56 1013.7
20260506133416 51 0 3.0 12.0 0.00 0.24 0.01 58 1013.7
20260506132200 49 21 1.0 6.0 0.00 0.24 0.01 64 1013.5
20260506131011 49 49 1.0 6.0 0.00 0.24 0.01 63 1013.5
20260506125816 48 33 1.0 7.0 0.00 0.24 0.01 65 1013.4
20260506124535 47 11 1.0 7.0 0.00 0.24 0.01 68 1013.0
20260506123400 47 51 1.0 6.0 0.00 0.24 0.01 72 1013.0
20260506122226 47 15 3.0 8.0 0.00 0.24 0.01 75 1012.9
20260506120949 46 26 1.0 6.0 0.00 0.24 0.01 85 1012.8
20260506115723 45 312 1.0 6.0 0.00 0.24 0.01 90 1012.7
20260506114517 45 319 0.0 6.0 0.00 0.24 0.01 91 1012.6
20260506113339 44 32 0.0 3.0 0.00 0.24 0.01 91 1012.2
20260506112138 44 47 0.0 0.0 0.00 0.24 0.01 91 1012.2
20260506110908 44 47 0.0 0.0 0.00 0.24 0.01 90 1012.0
20260506105709 44 47 0.0 0.0 0.00 0.24 0.01 90 1011.6
20260506104434 45 47 0.0 0.0 0.00 0.24 0.01 90 1011.4
20260506103159 45 47 0.0 0.0 0.00 0.24 0.01 91 1011.3
20260506101941 46 47 0.0 0.0 0.00 0.24 0.01 91 1010.9
20260506100812 46 47 0.0 0.0 0.00 0.24 0.01 91 1010.9
20260506095549 46 47 0.0 0.0 0.00 0.24 0.01 91 1010.8
20260506094410 46 47 0.0 0.0 0.00 0.24 0.01 91 1010.5
20260506093214 45 47 0.0 0.0 0.00 0.24 0.01 91 1010.7
20260506092010 45 47 0.0 0.0 0.00 0.24 0.01 91 1010.6
20260506090818 45 47 0.0 0.0 0.00 0.24 0.01 90 1010.6
20260506085553 45 47 0.0 0.0 0.00 0.24 0.01 90 1010.7
20260506084335 45 47 0.0 0.0 0.00 0.24 0.01 90 1010.6
20260506083148 46 47 0.0 0.0 0.00 0.24 0.01 90 1010.6
20260506081946 46 47 0.0 0.0 0.00 0.24 0.01 90 1010.5
20260506080800 45 47 0.0 0.0 0.00 0.24 0.01 90 1010.5
20260506073200 45 47 0.0 0.0 0.00 0.24 0.01 90 1010.0
20260506071958 45 47 0.0 1.0 0.00 0.24 0.01 90 1009.5
20260506070739 45 47 0.0 2.0 0.00 0.24 0.01 90 1010.1
20260506061955 46 116 0.0 1.0 0.00 0.24 0.00 90 1010.1
20260506060748 46 342 0.0 1.0 0.00 0.27 0.00 90 1010.5
20260506050847 46 31 0.0 0.0 0.00 0.38 0.00 90 1010.8
20260506044440 46 31 0.0 0.0 0.00 0.39 0.00 90 1010.7
20260506043301 46 31 0.0 0.0 0.00 0.39 0.00 90 1010.4
20260506042116 46 31 0.0 0.0 0.00 0.39 0.00 89 1010.3
20260506040936 46 31 0.0 0.0 0.00 0.39 0.00 89 1010.2
20260506035733 46 31 0.0 0.0 0.00 0.39 0.38 89 1010.2
20260506034522 46 31 0.0 0.0 0.00 0.39 0.38 89 1010.4
20260506033350 46 31 0.0 0.0 0.00 0.39 0.38 89 1010.1
20260506032147 46 31 0.0 0.0 0.00 0.39 0.38 88 1010.1
20260506030953 46 31 0.0 0.0 0.00 0.38 0.38 88 1010.2
20260506025815 46 31 0.0 0.0 0.00 0.38 0.38 88 1010.1
20260506024617 46 31 0.0 0.0 0.00 0.38 0.38 88 1010.2
20260506023349 46 31 0.0 0.0 0.00 0.38 0.38 88 1009.8
20260506022208 46 31 0.0 0.0 0.00 0.38 0.38 89 1009.8
20260506020946 46 31 0.0 0.0 0.00 0.38 0.38 88 1009.7
20260506015743 47 31 0.0 0.0 0.00 0.38 0.38 88 1009.8
20260506014545 47 31 0.0 0.0 0.00 0.38 0.38 88 1009.8
20260506013313 47 31 0.0 0.0 0.00 0.38 0.38 87 1009.8
20260506012128 47 31 0.0 7.0 0.00 0.38 0.38 87 1009.7
20260506010956 47 25 1.0 7.0 0.00 0.38 0.38 88 1009.5
20260506005727 48 5 1.0 4.0 0.00 0.38 0.38 90 1009.3
20260506004447 49 355 0.0 4.0 0.00 0.38 0.38 90 1009.1
20260506003307 49 262 0.0 2.0 0.04 0.38 0.38 90 1009.1
20260506002128 49 261 0.0 0.0 0.00 0.36 0.37 90 1009.0
20260506000955 49 261 0.0 0.0 0.00 0.36 0.37 89 1009.1
20260505235754 49 261 0.0 1.0 0.05 0.36 0.36 89 1009.1
20260505234624 49 261 0.0 0.0 0.00 0.35 0.35 89 1009.1
20260505233448 49 261 0.0 0.0 0.00 0.33 0.34 89 1009.2
20260505232248 49 261 0.0 1.0 0.00 0.33 0.34 89 1009.2
20260505231053 49 261 0.0 0.0 0.00 0.32 0.33 89 1009.1
20260505225920 49 256 0.0 1.0 0.00 0.32 0.33 89 1009.2
20260505224647 49 255 0.0 0.0 0.00 0.32 0.33 89 1009.1
20260505223410 49 256 0.0 1.0 0.04 0.32 0.32 88 1009.1
20260505222149 49 256 0.0 0.0 0.06 0.32 0.32 89 1009.1
20260505220923 49 256 0.0 0.0 0.05 0.29 0.30 88 1009.2
20260505215751 49 243 0.0 0.0 0.06 0.29 0.30 88 1009.3
20260505214612 49 237 0.0 0.0 0.05 0.27 0.27 88 1009.1
20260505213401 49 236 0.0 0.0 0.00 0.26 0.27 88 1009.0
20260505212153 49 236 0.0 0.0 0.00 0.26 0.26 88 1009.0
20260505210925 49 236 0.0 0.0 0.00 0.24 0.26 87 1008.9
20260505205707 49 236 0.0 0.0 0.00 0.24 0.25 87 1009.0